| time (UTC) | temp C | wind direction | speed KPH | gust KPH | rain 1hr cm | rain 24hr cm | rain mn cm | humidity % | barometer mb |
| 20260831083008 | 23 | 257 | 0.0 | 3.2 | 0.00 | 0.00 | 0.00 | 88 | 1009.7 |
| 20260831082513 | 23 | 257 | 0.0 | 1.6 | 0.00 | 0.00 | 0.00 | 88 | 1009.7 |
| 20260831082013 | 23 | 257 | 0.0 | 0.0 | 0.00 | 0.00 | 0.00 | 88 | 1009.7 |
| 20260831081524 | 23 | 258 | 0.0 | 3.2 | 0.00 | 0.00 | 0.00 | 88 | 1009.6 |
| 20260831081013 | 23 | 257 | 0.0 | 3.2 | 0.00 | 0.00 | 0.00 | 88 | 1009.6 |
| 20260831080512 | 23 | 257 | 0.0 | 0.0 | 0.00 | 0.00 | 0.00 | 88 | 1009.8 |
| 20260831080033 | 23 | 258 | 0.0 | 0.0 | 0.00 | 0.00 | 0.00 | 87 | 1009.7 |
| 20260831075507 | 24 | 257 | 0.0 | 0.0 | 0.00 | 0.00 | 0.00 | 86 | 1009.7 |
| 20260831075012 | 24 | 257 | 0.0 | 3.2 | 0.00 | 0.00 | 0.00 | 86 | 1009.7 |
| 20260831074510 | 24 | 258 | 0.0 | 3.2 | 0.00 | 0.00 | 0.00 | 86 | 1009.5 |
| 20260831074007 | 24 | 257 | 0.0 | 3.2 | 0.00 | 0.00 | 0.00 | 87 | 1009.6 |
| 20260831073508 | 24 | 352 | 0.0 | 1.6 | 0.00 | 0.00 | 0.00 | 87 | 1009.7 |
| 20260831073015 | 24 | 352 | 0.0 | 1.6 | 0.00 | 0.00 | 0.00 | 87 | 1009.8 |
| 20260831072516 | 24 | 352 | 0.0 | 1.6 | 0.00 | 0.00 | 0.00 | 87 | 1009.9 |
| 20260831072006 | 24 | 352 | 0.0 | 3.2 | 0.00 | 0.00 | 0.00 | 87 | 1009.9 |
| 20260831071544 | 24 | 352 | 0.0 | 3.2 | 0.00 | 0.00 | 0.00 | 87 | 1009.9 |
| 20260831071014 | 24 | 352 | 0.0 | 0.0 | 0.00 | 0.00 | 0.00 | 87 | 1009.8 |
| 20260831070512 | 24 | 352 | 0.0 | 0.0 | 0.00 | 0.00 | 0.00 | 87 | 1009.9 |
| 20260831070015 | 24 | 352 | 0.0 | 0.0 | 0.00 | 0.00 | 0.00 | 86 | 1009.9 |
| 20260831065514 | 24 | 352 | 0.0 | 0.0 | 0.00 | 0.00 | 0.00 | 86 | 1010.0 |
| 20260831065010 | 24 | 352 | 0.0 | 0.0 | 0.00 | 0.00 | 0.00 | 87 | 1010.0 |
| 20260831064532 | 24 | 352 | 0.0 | 0.0 | 0.00 | 0.00 | 0.00 | 87 | 1010.0 |
| 20260831064010 | 24 | 352 | 0.0 | 0.0 | 0.00 | 0.00 | 0.00 | 87 | 1010.0 |
| 20260831063510 | 24 | 352 | 0.0 | 0.0 | 0.00 | 0.00 | 0.00 | 86 | 1010.0 |
| 20260831063006 | 24 | 352 | 0.0 | 0.0 | 0.00 | 0.00 | 0.00 | 86 | 1010.0 |
| 20260831062508 | 25 | 352 | 0.0 | 0.0 | 0.00 | 0.00 | 0.00 | 86 | 1010.0 |
| 20260831062008 | 25 | 352 | 0.0 | 0.0 | 0.00 | 0.00 | 0.00 | 85 | 1010.0 |
| 20260831061504 | 25 | 352 | 0.0 | 3.2 | 0.00 | 0.00 | 0.00 | 85 | 1010.0 |
| 20260831061010 | 25 | 352 | 0.0 | 3.2 | 0.00 | 0.00 | 0.00 | 84 | 1009.8 |
| 20260831060505 | 25 | 352 | 0.0 | 3.2 | 0.00 | 0.00 | 0.00 | 84 | 1009.8 |
| 20260831060026 | 25 | 352 | 0.0 | 3.2 | 0.00 | 0.00 | 0.00 | 84 | 1009.8 |
| 20260831055507 | 25 | 352 | 0.0 | 1.6 | 0.00 | 0.00 | 0.00 | 84 | 1009.7 |
| 20260831055003 | 25 | 352 | 0.0 | 3.2 | 0.00 | 0.00 | 0.00 | 84 | 1009.8 |
| 20260831054507 | 25 | 352 | 0.0 | 3.2 | 0.00 | 0.00 | 0.00 | 84 | 1009.7 |
| 20260831054011 | 25 | 352 | 0.0 | 3.2 | 0.00 | 0.00 | 0.00 | 84 | 1009.6 |
| 20260831053506 | 25 | 352 | 1.6 | 3.2 | 0.00 | 0.00 | 0.00 | 85 | 1009.6 |
| 20260831053024 | 25 | 352 | 0.0 | 3.2 | 0.00 | 0.00 | 0.00 | 84 | 1009.6 |
| 20260831052507 | 25 | 352 | 0.0 | 3.2 | 0.00 | 0.00 | 0.00 | 84 | 1009.6 |
| 20260831052008 | 25 | 352 | 0.0 | 3.2 | 0.00 | 0.00 | 0.00 | 85 | 1009.4 |
| 20260831051515 | 25 | 352 | 0.0 | 4.8 | 0.00 | 0.00 | 0.00 | 85 | 1009.4 |
| 20260831051013 | 25 | 352 | 3.2 | 4.8 | 0.00 | 0.00 | 0.00 | 84 | 1009.4 |
| 20260831050512 | 25 | 286 | 0.0 | 3.2 | 0.00 | 0.00 | 0.00 | 83 | 1009.3 |
| 20260831050023 | 25 | 286 | 0.0 | 1.6 | 0.00 | 0.00 | 0.00 | 83 | 1009.3 |
| 20260831045514 | 25 | 286 | 0.0 | 0.0 | 0.00 | 0.00 | 0.00 | 83 | 1009.3 |
| 20260831045012 | 25 | 286 | 0.0 | 0.0 | 0.00 | 0.00 | 0.00 | 83 | 1009.3 |
| 20260831044509 | 25 | 286 | 0.0 | 0.0 | 0.00 | 0.00 | 0.00 | 82 | 1009.3 |
| 20260831044008 | 25 | 286 | 0.0 | 0.0 | 0.00 | 0.00 | 0.00 | 83 | 1009.3 |
| 20260831043504 | 25 | 286 | 0.0 | 0.0 | 0.00 | 0.00 | 0.00 | 83 | 1009.3 |
| 20260831043010 | 25 | 286 | 0.0 | 0.0 | 0.00 | 0.00 | 0.00 | 83 | 1009.3 |
| 20260831042509 | 25 | 286 | 0.0 | 0.0 | 0.00 | 0.00 | 0.00 | 83 | 1009.4 |
| 20260831042008 | 25 | 286 | 0.0 | 0.0 | 0.00 | 0.00 | 0.00 | 83 | 1009.3 |
| 20260831041513 | 25 | 286 | 0.0 | 0.0 | 0.00 | 0.00 | 0.00 | 83 | 1009.4 |
| 20260831041007 | 25 | 286 | 0.0 | 0.0 | 0.00 | 0.00 | 0.00 | 83 | 1009.4 |
| 20260831040509 | 25 | 286 | 0.0 | 0.0 | 0.00 | 0.00 | 0.00 | 82 | 1009.4 |
| 20260831040026 | 25 | 286 | 0.0 | 0.0 | 0.00 | 0.00 | 0.00 | 82 | 1009.5 |
| 20260831035515 | 25 | 286 | 0.0 | 0.0 | 0.00 | 0.00 | 0.00 | 82 | 1009.5 |
| 20260831035009 | 25 | 286 | 0.0 | 3.2 | 0.00 | 0.00 | 0.00 | 82 | 1009.6 |
| 20260831034523 | 25 | 286 | 0.0 | 3.2 | 0.00 | 0.00 | 0.00 | 81 | 1009.6 |
| 20260831034009 | 26 | 286 | 0.0 | 3.2 | 0.00 | 0.00 | 0.00 | 81 | 1009.7 |
| 20260831033517 | 26 | 286 | 0.0 | 3.2 | 0.00 | 0.00 | 0.00 | 80 | 1009.7 |
| 20260831033017 | 26 | 286 | 0.0 | 0.0 | 0.00 | 0.00 | 0.00 | 79 | 1009.7 |
| 20260831032510 | 26 | 286 | 0.0 | 0.0 | 0.00 | 0.00 | 0.00 | 79 | 1009.6 |
| 20260831032008 | 26 | 286 | 0.0 | 0.0 | 0.00 | 0.00 | 0.00 | 79 | 1009.6 |
| 20260831031513 | 26 | 286 | 0.0 | 0.0 | 0.00 | 0.00 | 0.00 | 78 | 1009.7 |
| 20260831031011 | 26 | 286 | 0.0 | 0.0 | 0.00 | 0.00 | 0.00 | 79 | 1009.8 |
| 20260831030513 | 26 | 286 | 0.0 | 0.0 | 0.00 | 0.00 | 0.00 | 79 | 1009.8 |
| 20260831030016 | 26 | 286 | 0.0 | 0.0 | 0.00 | 0.00 | 0.00 | 79 | 1009.9 |
| 20260831025510 | 26 | 286 | 0.0 | 0.0 | 0.00 | 0.00 | 0.00 | 79 | 1009.9 |
| 20260831025012 | 26 | 286 | 0.0 | 0.0 | 0.00 | 0.00 | 0.00 | 78 | 1009.9 |
| 20260831024515 | 26 | 286 | 0.0 | 0.0 | 0.00 | 0.00 | 0.00 | 77 | 1009.8 |
| 20260831024011 | 27 | 286 | 0.0 | 0.0 | 0.00 | 0.00 | 0.00 | 76 | 1009.8 |
| 20260831023513 | 27 | 286 | 0.0 | 0.0 | 0.00 | 0.00 | 0.00 | 77 | 1009.7 |
| 20260831023027 | 27 | 286 | 0.0 | 0.0 | 0.00 | 0.00 | 0.00 | 77 | 1009.7 |
| 20260831022515 | 27 | 286 | 0.0 | 0.0 | 0.00 | 0.00 | 0.00 | 76 | 1009.6 |
| 20260831022011 | 27 | 286 | 0.0 | 0.0 | 0.00 | 0.00 | 0.00 | 77 | 1009.6 |
| 20260831021529 | 27 | 286 | 0.0 | 0.0 | 0.00 | 0.00 | 0.00 | 76 | 1009.6 |
| 20260831021012 | 27 | 286 | 0.0 | 0.0 | 0.00 | 0.00 | 0.00 | 77 | 1009.5 |
| 20260831020510 | 27 | 286 | 0.0 | 0.0 | 0.00 | 0.00 | 0.00 | 77 | 1009.5 |
| 20260831020022 | 27 | 286 | 0.0 | 0.0 | 0.00 | 0.00 | 0.00 | 76 | 1009.5 |
| 20260831015512 | 27 | 286 | 0.0 | 0.0 | 0.00 | 0.00 | 0.00 | 76 | 1009.4 |
| 20260831015013 | 27 | 286 | 0.0 | 0.0 | 0.00 | 0.00 | 0.00 | 75 | 1009.3 |
| 20260831014525 | 27 | 286 | 0.0 | 0.0 | 0.00 | 0.00 | 0.00 | 73 | 1009.3 |
| 20260831014011 | 27 | 286 | 0.0 | 0.0 | 0.00 | 0.00 | 0.00 | 73 | 1009.1 |
| 20260831013514 | 28 | 286 | 0.0 | 0.0 | 0.00 | 0.00 | 0.00 | 72 | 1009.1 |
| 20260831013023 | 28 | 286 | 0.0 | 0.0 | 0.00 | 0.00 | 0.00 | 72 | 1009.2 |
| 20260831012509 | 28 | 286 | 0.0 | 0.0 | 0.00 | 0.00 | 0.00 | 72 | 1009.1 |
| 20260831012017 | 28 | 286 | 0.0 | 0.0 | 0.00 | 0.00 | 0.00 | 71 | 1009.1 |
| 20260831011526 | 28 | 286 | 0.0 | 0.0 | 0.00 | 0.00 | 0.00 | 71 | 1009.1 |
| 20260831011018 | 28 | 286 | 0.0 | 0.0 | 0.00 | 0.00 | 0.00 | 71 | 1009.1 |
| 20260831010517 | 28 | 286 | 0.0 | 0.0 | 0.00 | 0.00 | 0.00 | 71 | 1009.1 |
| 20260831010018 | 28 | 286 | 0.0 | 0.0 | 0.00 | 0.00 | 0.00 | 71 | 1009.0 |
| 20260831005513 | 28 | 286 | 0.0 | 0.0 | 0.00 | 0.00 | 0.00 | 70 | 1009.0 |
| 20260831005015 | 28 | 286 | 0.0 | 0.0 | 0.00 | 0.00 | 0.00 | 70 | 1008.9 |
| 20260831004518 | 28 | 286 | 0.0 | 0.0 | 0.00 | 0.00 | 0.00 | 69 | 1009.0 |
| 20260831004018 | 28 | 286 | 0.0 | 0.0 | 0.00 | 0.00 | 0.00 | 69 | 1009.0 |
| 20260831003509 | 29 | 286 | 0.0 | 0.0 | 0.00 | 0.00 | 0.00 | 69 | 1009.0 |
| 20260831003034 | 29 | 286 | 0.0 | 0.0 | 0.00 | 0.00 | 0.00 | 68 | 1009.0 |
| 20260831002514 | 30 | 286 | 0.0 | 0.0 | 0.00 | 0.00 | 0.00 | 67 | 1009.0 |
| 20260831002011 | 30 | 286 | 0.0 | 0.0 | 0.00 | 0.00 | 0.00 | 66 | 1009.0 |
| 20260831001521 | 30 | 286 | 0.0 | 3.2 | 0.00 | 0.00 | 0.00 | 65 | 1009.0 |
| 20260831001015 | 30 | 286 | 0.0 | 3.2 | 0.00 | 0.00 | 0.00 | 65 | 1009.0 |
| 20260831000518 | 30 | 298 | 0.0 | 3.2 | 0.00 | 0.00 | 0.00 | 64 | 1009.0 |
| 20260831000034 | 30 | 298 | 0.0 | 3.2 | 0.00 | 0.00 | 0.00 | 63 | 1009.0 |
| 20260830235513 | 31 | 306 | 1.6 | 3.2 | 0.00 | 0.00 | 0.00 | 64 | 1009.0 |
| 20260830235014 | 31 | 277 | 0.0 | 3.2 | 0.00 | 0.00 | 0.00 | 61 | 1009.0 |
| 20260830234527 | 31 | 277 | 0.0 | 6.4 | 0.00 | 0.00 | 0.00 | 62 | 1009.0 |
| 20260830234011 | 31 | 242 | 1.6 | 6.4 | 0.00 | 0.00 | 0.00 | 60 | 1009.0 |
| 20260830233514 | 31 | 165 | 0.0 | 3.2 | 0.00 | 0.00 | 0.00 | 62 | 1009.0 |
| 20260830233024 | 31 | 156 | 0.0 | 3.2 | 0.00 | 0.00 | 0.00 | 61 | 1008.9 |
| 20260830232511 | 32 | 157 | 0.0 | 3.2 | 0.00 | 0.00 | 0.00 | 60 | 1008.9 |
| 20260830232014 | 32 | 156 | 0.0 | 3.2 | 0.00 | 0.00 | 0.00 | 59 | 1008.9 |
| 20260830231524 | 32 | 323 | 1.6 | 3.2 | 0.00 | 0.00 | 0.00 | 56 | 1008.9 |
| 20260830231009 | 32 | 185 | 0.0 | 4.8 | 0.00 | 0.00 | 0.00 | 57 | 1008.8 |
| 20260830230512 | 32 | 241 | 1.6 | 4.8 | 0.00 | 0.00 | 0.00 | 58 | 1008.8 |
| 20260830230008 | 32 | 182 | 1.6 | 6.4 | 0.00 | 0.00 | 0.00 | 58 | 1008.7 |
| 20260830225506 | 32 | 291 | 0.0 | 6.4 | 0.00 | 0.00 | 0.00 | 58 | 1008.8 |
| 20260830225010 | 32 | 263 | 1.6 | 9.7 | 0.00 | 0.00 | 0.00 | 58 | 1008.7 |
| 20260830224514 | 32 | 306 | 0.0 | 9.7 | 0.00 | 0.00 | 0.00 | 57 | 1008.7 |
| 20260830224012 | 32 | 78 | 1.6 | 8.0 | 0.00 | 0.00 | 0.00 | 59 | 1008.7 |
| 20260830223512 | 32 | 292 | 1.6 | 8.0 | 0.00 | 0.00 | 0.00 | 55 | 1008.8 |
| 20260830223012 | 32 | 34 | 3.2 | 4.8 | 0.00 | 0.00 | 0.00 | 57 | 1008.7 |
| 20260830222513 | 32 | 236 | 1.6 | 4.8 | 0.00 | 0.00 | 0.00 | 56 | 1008.8 |
| 20260830222005 | 32 | 197 | 0.0 | 6.4 | 0.00 | 0.00 | 0.00 | 57 | 1008.8 |
| 20260830221508 | 32 | 202 | 1.6 | 8.0 | 0.00 | 0.00 | 0.00 | 55 | 1008.8 |
| 20260830221016 | 32 | 348 | 3.2 | 8.0 | 0.00 | 0.00 | 0.00 | 56 | 1008.7 |
| 20260830220515 | 32 | 40 | 0.0 | 8.0 | 0.00 | 0.00 | 0.00 | 56 | 1008.8 |
| 20260830220011 | 32 | 176 | 3.2 | 8.0 | 0.00 | 0.00 | 0.00 | 55 | 1008.7 |
| 20260830215513 | 32 | 124 | 1.6 | 8.0 | 0.00 | 0.00 | 0.00 | 58 | 1008.7 |
| 20260830215016 | 31 | 173 | 1.6 | 9.7 | 0.00 | 0.00 | 0.00 | 61 | 1008.7 |
| 20260830214514 | 32 | 304 | 1.6 | 9.7 | 0.00 | 0.00 | 0.00 | 56 | 1008.7 |
| 20260830214013 | 32 | 147 | 3.2 | 8.0 | 0.00 | 0.00 | 0.00 | 56 | 1008.6 |
| 20260830213508 | 32 | 218 | 1.6 | 6.4 | 0.00 | 0.00 | 0.00 | 56 | 1008.6 |
| 20260830213019 | 32 | 158 | 1.6 | 6.4 | 0.00 | 0.00 | 0.00 | 54 | 1008.6 |
| 20260830212508 | 32 | 317 | 1.6 | 6.4 | 0.00 | 0.00 | 0.00 | 52 | 1008.6 |
| 20260830212012 | 32 | 213 | 3.2 | 6.4 | 0.00 | 0.00 | 0.00 | 54 | 1008.6 |
| 20260830211526 | 32 | 334 | 1.6 | 6.4 | 0.00 | 0.00 | 0.00 | 52 | 1008.7 |
| 20260830211011 | 32 | 305 | 1.6 | 8.0 | 0.00 | 0.00 | 0.00 | 54 | 1008.8 |
| 20260830210510 | 32 | 160 | 3.2 | 8.0 | 0.00 | 0.00 | 0.00 | 56 | 1008.9 |
| 20260830210023 | 31 | 293 | 1.6 | 12.9 | 0.00 | 0.00 | 0.00 | 56 | 1009.0 |
| 20260830205509 | 31 | 215 | 0.0 | 12.9 | 0.00 | 0.00 | 0.00 | 54 | 1009.0 |
| 20260830205010 | 31 | 299 | 0.0 | 12.9 | 0.00 | 0.00 | 0.00 | 56 | 1009.1 |
| 20260830204519 | 31 | 298 | 4.8 | 12.9 | 0.00 | 0.00 | 0.00 | 53 | 1009.2 |
| 20260830204015 | 31 | 350 | 4.8 | 12.9 | 0.00 | 0.00 | 0.00 | 57 | 1009.3 |
| 20260830203514 | 31 | 282 | 3.2 | 8.0 | 0.00 | 0.00 | 0.00 | 57 | 1009.3 |
| 20260830203014 | 31 | 240 | 1.6 | 8.0 | 0.00 | 0.00 | 0.00 | 62 | 1009.3 |
| 20260830202506 | 30 | 308 | 1.6 | 6.4 | 0.00 | 0.00 | 0.00 | 59 | 1009.5 |
| 20260830202003 | 30 | 291 | 1.6 | 6.4 | 0.00 | 0.00 | 0.00 | 58 | 1009.3 |
| 20260830201504 | 30 | 260 | 3.2 | 8.0 | 0.00 | 0.00 | 0.00 | 58 | 1009.2 |
| 20260830201002 | 30 | 134 | 1.6 | 6.4 | 0.00 | 0.00 | 0.00 | 59 | 1009.0 |
| 20260830200504 | 31 | 207 | 1.6 | 4.8 | 0.00 | 0.00 | 0.00 | 56 | 1009.1 |
| 20260830200010 | 31 | 342 | 1.6 | 6.4 | 0.00 | 0.00 | 0.00 | 57 | 1009.1 |
| 20260830195502 | 31 | 352 | 1.6 | 4.8 | 0.00 | 0.00 | 0.00 | 58 | 1009.3 |
| 20260830195003 | 31 | 264 | 0.0 | 3.2 | 0.00 | 0.00 | 0.00 | 63 | 1009.5 |
| 20260830194507 | 30 | 180 | 1.6 | 3.2 | 0.00 | 0.00 | 0.00 | 62 | 1009.5 |
| 20260830194004 | 29 | 185 | 1.6 | 3.2 | 0.00 | 0.00 | 0.00 | 63 | 1009.7 |
| 20260830193503 | 29 | 332 | 0.0 | 6.4 | 0.00 | 0.00 | 0.00 | 65 | 1009.8 |
| 20260830193006 | 29 | 61 | 1.6 | 6.4 | 0.00 | 0.00 | 0.00 | 63 | 1009.8 |
| 20260830192505 | 29 | 236 | 1.6 | 3.2 | 0.00 | 0.00 | 0.00 | 63 | 1009.8 |
| 20260830192007 | 29 | 90 | 1.6 | 11.3 | 0.00 | 0.00 | 0.00 | 61 | 1009.8 |
| 20260830191503 | 29 | 188 | 4.8 | 11.3 | 0.00 | 0.00 | 0.00 | 61 | 1009.7 |
| 20260830191004 | 29 | 182 | 0.0 | 11.3 | 0.00 | 0.00 | 0.00 | 63 | 1009.7 |
| 20260830190503 | 29 | 267 | 3.2 | 8.0 | 0.00 | 0.00 | 0.00 | 62 | 1009.7 |
| 20260830190041 | 29 | 207 | 1.6 | 6.4 | 0.00 | 0.00 | 0.00 | 61 | 1009.3 |
| 20260830185503 | 30 | 260 | 1.6 | 6.4 | 0.00 | 0.00 | 0.00 | 57 | 1009.4 |
| 20260830185002 | 30 | 163 | 3.2 | 11.3 | 0.00 | 0.00 | 0.00 | 59 | 1009.4 |
| 20260830184508 | 30 | 313 | 3.2 | 11.3 | 0.00 | 0.00 | 0.00 | 58 | 1009.5 |
| 20260830184005 | 30 | 234 | 3.2 | 6.4 | 0.00 | 0.00 | 0.00 | 59 | 1009.5 |
| 20260830183503 | 29 | 332 | 3.2 | 8.0 | 0.00 | 0.00 | 0.00 | 58 | 1009.4 |
| 20260830183012 | 29 | 148 | 3.2 | 9.7 | 0.00 | 0.00 | 0.00 | 59 | 1009.4 |
| 20260830182508 | 30 | 267 | 1.6 | 9.7 | 0.00 | 0.00 | 0.00 | 58 | 1009.5 |
| 20260830182004 | 29 | 135 | 3.2 | 8.0 | 0.00 | 0.00 | 0.00 | 60 | 1009.6 |
| 20260830181518 | 29 | 48 | 3.2 | 6.4 | 0.00 | 0.00 | 0.00 | 58 | 1009.8 |
| 20260830181005 | 29 | 159 | 3.2 | 6.4 | 0.00 | 0.00 | 0.00 | 58 | 1010.0 |
| 20260830180504 | 29 | 98 | 3.2 | 12.9 | 0.00 | 0.00 | 0.00 | 57 | 1010.2 |
| 20260830180010 | 29 | 14 | 1.6 | 12.9 | 0.00 | 0.00 | 0.00 | 56 | 1010.0 |
| 20260830175502 | 30 | 188 | 4.8 | 12.9 | 0.00 | 0.00 | 0.00 | 57 | 1010.0 |
| 20260830175002 | 30 | 269 | 3.2 | 14.5 | 0.00 | 0.00 | 0.00 | 58 | 1010.1 |
| 20260830174503 | 30 | 199 | 4.8 | 14.5 | 0.00 | 0.00 | 0.00 | 57 | 1010.1 |
| 20260830174002 | 30 | 312 | 3.2 | 14.5 | 0.00 | 0.00 | 0.00 | 56 | 1010.1 |
| 20260830173505 | 30 | 296 | 3.2 | 14.5 | 0.00 | 0.00 | 0.00 | 56 | 1010.1 |
| 20260830173004 | 30 | 207 | 3.2 | 14.5 | 0.00 | 0.00 | 0.00 | 53 | 1010.1 |
| 20260830172507 | 30 | 172 | 3.2 | 16.1 | 0.00 | 0.00 | 0.00 | 55 | 1010.1 |
| 20260830172010 | 31 | 170 | 4.8 | 16.1 | 0.00 | 0.00 | 0.00 | 53 | 1010.1 |
| 20260830171505 | 30 | 175 | 3.2 | 12.9 | 0.00 | 0.00 | 0.00 | 56 | 1010.0 |
| 20260830171006 | 30 | 94 | 4.8 | 12.9 | 0.00 | 0.00 | 0.00 | 57 | 1010.0 |
| 20260830170509 | 30 | 205 | 1.6 | 11.3 | 0.00 | 0.00 | 0.00 | 56 | 1010.0 |
| 20260830170004 | 29 | 313 | 1.6 | 12.9 | 0.00 | 0.00 | 0.00 | 60 | 1010.0 |
| 20260830165512 | 29 | 136 | 1.6 | 12.9 | 0.00 | 0.00 | 0.00 | 57 | 1010.0 |
| 20260830165004 | 29 | 233 | 3.2 | 12.9 | 0.00 | 0.00 | 0.00 | 56 | 1010.0 |
| 20260830164515 | 30 | 333 | 6.4 | 12.9 | 0.00 | 0.00 | 0.00 | 54 | 1010.0 |
| 20260830164004 | 30 | 191 | 3.2 | 11.3 | 0.00 | 0.00 | 0.00 | 55 | 1010.0 |
| 20260830163505 | 30 | 213 | 3.2 | 12.9 | 0.00 | 0.00 | 0.00 | 55 | 1010.0 |
| 20260830163007 | 30 | 257 | 3.2 | 12.9 | 0.00 | 0.00 | 0.00 | 56 | 1010.0 |
| 20260830162507 | 30 | 248 | 3.2 | 8.0 | 0.00 | 0.00 | 0.00 | 55 | 1010.0 |
| 20260830162005 | 30 | 129 | 3.2 | 8.0 | 0.00 | 0.00 | 0.00 | 60 | 1009.9 |
| 20260830161506 | 29 | 9 | 3.2 | 8.0 | 0.00 | 0.00 | 0.00 | 55 | 1009.9 |
| 20260830161006 | 29 | 209 | 3.2 | 9.7 | 0.00 | 0.00 | 0.00 | 57 | 1009.9 |
| 20260830160508 | 28 | 289 | 3.2 | 14.5 | 0.00 | 0.00 | 0.00 | 60 | 1009.9 |
| 20260830160004 | 28 | 250 | 3.2 | 14.5 | 0.00 | 0.00 | 0.00 | 61 | 1009.8 |
| 20260830155503 | 27 | 247 | 1.6 | 9.7 | 0.00 | 0.00 | 0.00 | 62 | 1009.8 |
| 20260830155011 | 28 | 176 | 3.2 | 9.7 | 0.00 | 0.00 | 0.00 | 61 | 1009.8 |
| 20260830154515 | 28 | 168 | 1.6 | 8.0 | 0.00 | 0.00 | 0.00 | 63 | 1009.8 |
| 20260830154007 | 28 | 51 | 1.6 | 9.7 | 0.00 | 0.00 | 0.00 | 63 | 1009.8 |
| 20260830153512 | 27 | 220 | 3.2 | 9.7 | 0.00 | 0.00 | 0.00 | 64 | 1009.9 |
| 20260830153007 | 27 | 188 | 3.2 | 8.0 | 0.00 | 0.00 | 0.00 | 63 | 1009.9 |
| 20260830152513 | 27 | 101 | 3.2 | 8.0 | 0.00 | 0.00 | 0.00 | 63 | 1010.0 |
| 20260830152005 | 27 | 184 | 1.6 | 6.4 | 0.00 | 0.00 | 0.00 | 65 | 1009.8 |
| 20260830151508 | 27 | 192 | 1.6 | 6.4 | 0.00 | 0.00 | 0.00 | 65 | 1009.8 |
| 20260830151006 | 27 | 186 | 1.6 | 6.4 | 0.00 | 0.00 | 0.00 | 66 | 1009.8 |
| 20260830150507 | 26 | 240 | 1.6 | 6.4 | 0.00 | 0.00 | 0.00 | 71 | 1009.8 |
| 20260830150014 | 26 | 191 | 0.0 | 3.2 | 0.00 | 0.00 | 0.00 | 68 | 1009.8 |
| 20260830145512 | 26 | 83 | 1.6 | 4.8 | 0.00 | 0.00 | 0.00 | 71 | 1009.8 |
| 20260830145006 | 25 | 91 | 1.6 | 4.8 | 0.00 | 0.00 | 0.00 | 73 | 1009.8 |
| 20260830144512 | 25 | 97 | 1.6 | 4.8 | 0.00 | 0.00 | 0.00 | 72 | 1009.8 |
| 20260830144013 | 25 | 111 | 0.0 | 3.2 | 0.00 | 0.00 | 0.00 | 73 | 1010.0 |
| 20260830143517 | 25 | 111 | 0.0 | 3.2 | 0.00 | 0.00 | 0.00 | 73 | 1010.0 |
| 20260830143012 | 25 | 111 | 1.6 | 3.2 | 0.00 | 0.00 | 0.00 | 73 | 1009.8 |
| 20260830142508 | 25 | 85 | 1.6 | 1.6 | 0.00 | 0.00 | 0.00 | 72 | 1010.0 |
| 20260830142013 | 25 | 85 | 0.0 | 3.2 | 0.00 | 0.00 | 0.00 | 72 | 1010.0 |
| 20260830141523 | 25 | 111 | 0.0 | 3.2 | 0.00 | 0.00 | 0.00 | 71 | 1009.7 |
| 20260830141002 | 25 | 98 | 0.0 | 3.2 | 0.00 | 0.00 | 0.00 | 72 | 1009.6 |
| 20260830140508 | 24 | 99 | 1.6 | 3.2 | 0.00 | 0.00 | 0.00 | 73 | 1009.8 |
| 20260830140010 | 24 | 66 | 0.0 | 3.2 | 0.00 | 0.00 | 0.00 | 70 | 1009.8 |
| 20260830135508 | 24 | 66 | 0.0 | 3.2 | 0.00 | 0.00 | 0.00 | 72 | 1009.8 |
| 20260830135011 | 24 | 84 | 0.0 | 3.2 | 0.00 | 0.00 | 0.00 | 71 | 1009.8 |
| 20260830134525 | 25 | 109 | 0.0 | 3.2 | 0.00 | 0.00 | 0.00 | 72 | 1009.8 |
| 20260830134013 | 25 | 198 | 0.0 | 3.2 | 0.00 | 0.00 | 0.00 | 70 | 1009.8 |
| 20260830133506 | 25 | 196 | 0.0 | 3.2 | 0.00 | 0.00 | 0.00 | 71 | 1009.8 |
| 20260830133010 | 24 | 196 | 0.0 | 3.2 | 0.00 | 0.00 | 0.00 | 71 | 1009.9 |
| 20260830132513 | 24 | 195 | 0.0 | 3.2 | 0.00 | 0.00 | 0.00 | 70 | 1009.8 |
| 20260830132007 | 23 | 215 | 0.0 | 3.2 | 0.00 | 0.00 | 0.00 | 73 | 1010.0 |
| 20260830131508 | 23 | 215 | 0.0 | 3.2 | 0.00 | 0.00 | 0.00 | 74 | 1010.0 |
| 20260830131014 | 23 | 215 | 0.0 | 3.2 | 0.00 | 0.00 | 0.00 | 74 | 1010.0 |
| 20260830130513 | 23 | 215 | 0.0 | 3.2 | 0.00 | 0.00 | 0.00 | 72 | 1010.0 |
| 20260830130007 | 23 | 215 | 0.0 | 3.2 | 0.00 | 0.00 | 0.00 | 73 | 1010.0 |
| 20260830125508 | 24 | 212 | 0.0 | 4.8 | 0.00 | 0.00 | 0.00 | 72 | 1009.9 |
| 20260830125010 | 24 | 212 | 0.0 | 4.8 | 0.00 | 0.00 | 0.00 | 70 | 1010.0 |
| 20260830124517 | 24 | 269 | 0.0 | 3.2 | 0.00 | 0.00 | 0.00 | 70 | 1009.9 |
| 20260830124011 | 24 | 286 | 0.0 | 3.2 | 0.00 | 0.00 | 0.00 | 69 | 1010.0 |
| 20260830123508 | 24 | 286 | 0.0 | 3.2 | 0.00 | 0.00 | 0.00 | 70 | 1009.9 |
| 20260830123024 | 24 | 152 | 0.0 | 3.2 | 0.00 | 0.00 | 0.00 | 70 | 1009.9 |
| 20260830122508 | 23 | 140 | 0.0 | 3.2 | 0.00 | 0.00 | 0.00 | 71 | 1009.9 |
| 20260830122012 | 23 | 140 | 0.0 | 3.2 | 0.00 | 0.00 | 0.00 | 72 | 1009.8 |
| 20260830121536 | 23 | 140 | 0.0 | 3.2 | 0.00 | 0.00 | 0.00 | 72 | 1009.8 |
| 20260830121009 | 23 | 140 | 0.0 | 3.2 | 0.00 | 0.00 | 0.00 | 71 | 1009.9 |
| 20260830120511 | 24 | 140 | 0.0 | 3.2 | 0.00 | 0.00 | 0.00 | 69 | 1010.1 |
| 20260830120026 | 24 | 140 | 0.0 | 3.2 | 0.00 | 0.00 | 0.00 | 68 | 1010.1 |
| 20260830115507 | 24 | 140 | 0.0 | 3.2 | 0.00 | 0.00 | 0.00 | 68 | 1010.0 |
| 20260830115011 | 24 | 321 | 0.0 | 3.2 | 0.00 | 0.00 | 0.00 | 68 | 1009.9 |
| 20260830114513 | 24 | 105 | 0.0 | 4.8 | 0.00 | 0.00 | 0.00 | 68 | 1009.8 |
| 20260830114013 | 24 | 124 | 0.0 | 4.8 | 0.00 | 0.00 | 0.00 | 69 | 1009.8 |
| 20260830113511 | 24 | 167 | 0.0 | 4.8 | 0.00 | 0.00 | 0.00 | 68 | 1009.8 |
| 20260830113019 | 25 | 167 | 0.0 | 4.8 | 0.00 | 0.00 | 0.00 | 68 | 1009.9 |
| 20260830112503 | 25 | 167 | 0.0 | 4.8 | 0.00 | 0.00 | 0.00 | 66 | 1010.0 |
| 20260830112003 | 25 | 263 | 0.0 | 4.8 | 0.00 | 0.00 | 0.00 | 66 | 1010.2 |
| 20260830111504 | 25 | 284 | 1.6 | 4.8 | 0.00 | 0.00 | 0.00 | 64 | 1010.3 |
| 20260830111004 | 25 | 329 | 0.0 | 6.4 | 0.00 | 0.00 | 0.00 | 65 | 1010.4 |
| 20260830110505 | 25 | 196 | 1.6 | 6.4 | 0.00 | 0.00 | 0.00 | 65 | 1010.2 |
| 20260830110005 | 25 | 282 | 0.0 | 3.2 | 0.00 | 0.00 | 0.00 | 65 | 1010.2 |
| 20260830105504 | 25 | 328 | 0.0 | 3.2 | 0.00 | 0.00 | 0.00 | 66 | 1010.3 |
| 20260830105003 | 25 | 164 | 0.0 | 6.4 | 0.00 | 0.00 | 0.00 | 63 | 1010.0 |
| 20260830104517 | 25 | 248 | 1.6 | 6.4 | 0.00 | 0.00 | 0.00 | 64 | 1010.1 |
| 20260830104006 | 25 | 130 | 0.0 | 6.4 | 0.00 | 0.00 | 0.00 | 64 | 1010.2 |
| 20260830103507 | 25 | 323 | 1.6 | 4.8 | 0.00 | 0.00 | 0.00 | 64 | 1010.3 |
| 20260830103006 | 25 | 322 | 1.6 | 4.8 | 0.00 | 0.00 | 0.00 | 64 | 1010.4 |
| 20260830102507 | 25 | 264 | 0.0 | 6.4 | 0.00 | 0.00 | 0.00 | 64 | 1010.6 |
| 20260830102004 | 25 | 199 | 3.2 | 6.4 | 0.00 | 0.00 | 0.00 | 64 | 1010.4 |
| 20260830101503 | 25 | 321 | 1.6 | 6.4 | 0.00 | 0.00 | 0.00 | 65 | 1010.3 |
| 20260830101006 | 25 | 179 | 0.0 | 3.2 | 0.00 | 0.00 | 0.00 | 65 | 1010.4 |
| 20260830100503 | 25 | 170 | 0.0 | 3.2 | 0.00 | 0.00 | 0.00 | 65 | 1010.4 |
| 20260830100004 | 25 | 120 | 0.0 | 3.2 | 0.00 | 0.00 | 0.00 | 66 | 1010.5 |
| 20260830095504 | 25 | 286 | 0.0 | 4.8 | 0.00 | 0.00 | 0.00 | 66 | 1010.6 |
| 20260830095004 | 25 | 133 | 1.6 | 4.8 | 0.00 | 0.00 | 0.00 | 66 | 1010.6 |
| 20260830094510 | 25 | 306 | 0.0 | 3.2 | 0.00 | 0.00 | 0.00 | 68 | 1010.5 |
| 20260830094007 | 25 | 183 | 0.0 | 3.2 | 0.00 | 0.00 | 0.00 | 69 | 1010.4 |
| 20260830093503 | 25 | 313 | 0.0 | 4.8 | 0.00 | 0.00 | 0.00 | 68 | 1010.5 |
| 20260830093011 | 25 | 309 | 0.0 | 4.8 | 0.00 | 0.00 | 0.00 | 70 | 1010.6 |
| 20260830092507 | 24 | 309 | 0.0 | 4.8 | 0.00 | 0.00 | 0.00 | 70 | 1010.2 |
| 20260830092002 | 24 | 159 | 0.0 | 3.2 | 0.00 | 0.00 | 0.00 | 70 | 1010.1 |
| 20260830091510 | 24 | 204 | 0.0 | 3.2 | 0.00 | 0.00 | 0.00 | 70 | 1010.0 |
| 20260830091006 | 24 | 322 | 0.0 | 3.2 | 0.00 | 0.00 | 0.00 | 71 | 1010.0 |
| 20260830090501 | 24 | 322 | 0.0 | 3.2 | 0.00 | 0.00 | 0.00 | 70 | 1009.9 |
| 20260830090004 | 24 | 323 | 0.0 | 3.2 | 0.00 | 0.00 | 0.00 | 71 | 1009.9 |
| 20260830085506 | 24 | 346 | 0.0 | 3.2 | 0.00 | 0.00 | 0.00 | 71 | 1009.9 |
| 20260830085005 | 24 | 287 | 0.0 | 3.2 | 0.00 | 0.00 | 0.00 | 70 | 1009.9 |
| 20260830084504 | 24 | 232 | 0.0 | 3.2 | 0.00 | 0.00 | 0.00 | 71 | 1009.9 |
| 20260830084004 | 24 | 234 | 0.0 | 3.2 | 0.00 | 0.00 | 0.00 | 71 | 1009.9 |
| 20260830083507 | 24 | 226 | 0.0 | 3.2 | 0.00 | 0.00 | 0.00 | 71 | 1010.0 |